Вернуться в каталог

OSCAR 25

АктивенЛюбительское радиоPO
NORAD 19419·PAYLOAD·🇺🇸 United States

Запущен Aug 25, 1988 с Vandenberg Space Force Base

Loading…

Ближайшие Пролёты (ближайшие 24 часа)

TLE

СвежийSource: Space-Track

Эпоха: Sep 14, 2026, 07:51 UTC

1 19419U 88074A   26257.32728641  .00000075  00000-0  11303-3 0  9999
2 19419  90.0488  21.3262 0096384 178.9087 209.6451 13.42669720863386

Отслеживайте OSCAR 25 в реальном времени с AllMySat

Download on the App Store